Location: Great Chart
(51.1333°N, 0.8333°E)
Time: 11:47:18
(UTC+00:00)

SL-4 R/B - Pass Details

Date: 19 September 2020
Orbit: 427 x 666 km, 51.6° (Epoch: 31 October)

Event Time Altitude Azimuth Distance (km) Brightness Sun altitude
Exits shadow 04:32:51 - 201° (SSW) 2,759 5.2 -11.0°
Reaches altitude 10° 04:35:11 10° 187° (S) 2,005 4.7 -10.6°
Maximum altitude 04:38:43 22° 138° (SE) 1,423 4.5 -10.1°
Drops below altitude 10° 04:42:21 10° 88° (E) 2,078 6.5 -9.5°
Sets 04:45:10 0° 74° (ENE) 3,005 8.2 -9.1°
